GW2543 Weather Reports


time (UTC)temp
F
wind
direction
speed
knots
gust
knots
rain 1hr
in
rain 24hr
in
rain mn
in
humidity
%
barometer
mb
20260506044752 64 281 0.9 1.7 0.00 0.00 0.00 69 1010.3
20260506044250 64 283 0.9 0.9 0.00 0.00 0.00 69 1010.2
20260506043747 65 266 0.9 1.7 0.00 0.00 0.00 67 1010.4
20260506043244 65 280 0.0 0.0 0.00 0.00 0.00 67 1010.0
20260506042743 65 274 0.0 0.0 0.00 0.00 0.00 67 1010.0
20260506042241 65 277 0.0 0.0 0.00 0.00 0.00 67 1009.9
20260506041739 66 277 0.0 0.0 0.00 0.00 0.00 68 1009.8
20260506041236 66 277 0.0 0.0 0.00 0.00 0.00 65 1009.8
20260506040734 66 277 0.0 0.9 0.00 0.00 0.00 64 1009.6
20260506040230 67 279 0.9 0.9 0.00 0.00 0.00 63 1009.5
20260506035727 67 278 0.9 0.9 0.00 0.00 0.00 62 1009.3
20260506035224 68 278 0.9 0.9 0.00 0.00 0.00 61 1009.1
20260506034721 68 278 0.0 0.0 0.00 0.00 0.00 60 1009.1
20260506034218 68 278 0.0 0.0 0.00 0.00 0.00 59 1009.2
20260506033715 69 278 0.0 0.0 0.00 0.00 0.00 58 1009.0
20260506033212 69 278 0.0 0.9 0.00 0.00 0.00 57 1008.8
20260506032709 69 278 0.0 0.0 0.00 0.00 0.00 58 1008.9
20260506032206 69 269 0.0 0.0 0.00 0.00 0.00 56 1008.7
20260506031703 70 269 0.0 0.0 0.00 0.00 0.00 56 1008.8
20260506031200 71 269 0.0 0.9 0.00 0.00 0.00 54 1008.5
20260506030658 71 277 0.0 0.0 0.00 0.00 0.00 56 1008.5
20260506030155 71 262 0.9 0.9 0.00 0.00 0.00 52 1008.3
20260506025652 72 269 0.0 1.7 0.00 0.00 0.00 52 1008.4
20260506025148 72 273 0.0 0.9 0.00 0.00 0.00 50 1008.2
20260506024646 73 273 0.9 0.9 0.00 0.00 0.00 49 1008.1
20260506024142 73 280 0.9 0.9 0.00 0.00 0.00 48 1007.9
20260506023638 74 271 1.7 1.7 0.00 0.00 0.00 47 1007.9
20260506023136 74 256 0.9 1.7 0.00 0.00 0.00 46 1007.6
20260506022633 75 277 0.9 0.9 0.00 0.00 0.00 46 1007.4
20260506022130 75 263 0.9 1.7 0.00 0.00 0.00 44 1007.7
20260506021628 75 256 0.9 1.7 0.00 0.00 0.00 45 1007.5
20260506021125 75 271 0.9 0.9 0.00 0.00 0.00 46 1007.5
20260506020622 75 269 0.0 1.7 0.00 0.00 0.00 44 1007.6
20260506020120 75 248 1.7 1.7 0.00 0.00 0.00 43 1007.1
20260506015617 75 269 1.7 1.7 0.00 0.00 0.00 44 1007.3
20260506015114 75 270 0.9 1.7 0.00 0.00 0.00 46 1007.1
20260506014612 75 289 0.0 0.9 0.00 0.00 0.00 45 1007.2
20260506014106 75 277 0.0 0.9 0.00 0.00 0.00 46 1007.1
20260506013605 76 273 0.9 0.9 0.00 0.00 0.00 46 1007.0
20260506013102 76 274 0.9 1.7 0.00 0.00 0.00 46 1006.9
20260506012558 77 279 0.0 1.7 0.00 0.00 0.00 44 1007.0
20260506012054 76 279 0.9 1.7 0.00 0.00 0.00 45 1007.0
20260506011553 76 281 1.7 2.6 0.00 0.00 0.00 46 1007.0
20260506011048 77 242 0.0 1.7 0.00 0.00 0.00 45 1006.9
20260506010542 77 281 0.0 1.7 0.00 0.00 0.00 45 1007.0
20260506010038 77 309 0.0 0.9 0.00 0.00 0.00 45 1006.9
20260506005535 77 290 0.0 0.9 0.00 0.00 0.00 45 1007.0
20260506005031 77 273 0.0 2.6 0.00 0.00 0.00 45 1006.8
20260506004529 77 298 0.0 2.6 0.00 0.00 0.00 44 1006.7
20260506004025 77 23 1.7 1.7 0.00 0.00 0.00 46 1006.6
20260506003522 77 305 0.0 0.9 0.00 0.00 0.00 45 1006.6
20260506003018 77 253 0.9 0.9 0.00 0.00 0.00 44 1006.6
20260506002514 77 238 0.0 0.9 0.00 0.00 0.00 45 1006.4
20260506002010 78 347 1.7 1.7 0.00 0.00 0.00 44 1006.8
20260506001507 77 274 0.9 2.6 0.00 0.00 0.00 44 1006.6
20260506001004 78 281 0.9 1.7 0.00 0.00 0.00 44 1006.6
20260506000501 78 316 0.0 4.3 0.00 0.00 0.00 43 1006.5
20260505235958 77 244 0.9 0.9 0.00 0.00 0.00 43 1006.6
20260505235456 77 287 0.9 1.7 0.00 0.00 0.00 45 1006.7
20260505234953 77 276 0.9 1.7 0.00 0.00 0.00 45 1006.6
20260505234450 78 262 0.0 1.7 0.00 0.00 0.00 44 1006.6
20260505233947 78 290 0.0 0.9 0.00 0.00 0.00 44 1006.6
20260505233444 78 277 0.0 0.9 0.00 0.00 0.00 44 1006.5
20260505232942 79 291 0.0 1.7 0.00 0.00 0.00 42 1006.6
20260505232440 78 272 0.9 0.9 0.00 0.00 0.00 42 1006.7
20260505231937 79 295 0.9 0.9 0.00 0.00 0.00 42 1006.7
20260505231434 79 271 0.9 2.6 0.00 0.00 0.00 39 1006.8
20260505230932 79 282 0.9 1.7 0.00 0.00 0.00 42 1006.9
20260505230429 80 274 0.0 0.9 0.00 0.00 0.00 41 1006.8
20260505225925 80 285 0.9 0.9 0.00 0.00 0.00 39 1007.0
20260505225423 80 284 0.9 2.6 0.00 0.00 0.00 42 1006.9
20260505224918 80 285 0.0 1.7 0.00 0.00 0.00 40 1006.7
20260505224416 80 29 0.9 1.7 0.00 0.00 0.00 39 1006.8
20260505223912 81 281 0.0 0.9 0.00 0.00 0.00 42 1007.0
20260505223410 81 232 0.9 0.9 0.00 0.00 0.00 40 1007.0
20260505222906 81 268 0.0 1.7 0.00 0.00 0.00 41 1006.9
20260505222402 81 283 0.9 0.9 0.00 0.00 0.00 39 1007.1
20260505221859 82 279 0.9 1.7 0.00 0.00 0.00 39 1007.2
20260505221355 82 273 0.9 1.7 0.00 0.00 0.00 39 1007.3
20260505220853 81 278 0.0 0.9 0.00 0.00 0.00 42 1007.4
20260505220350 81 37 1.7 2.6 0.00 0.00 0.00 41 1007.3
20260505215847 81 275 0.9 0.9 0.00 0.00 0.00 43 1007.3
20260505215345 80 243 0.9 0.9 0.00 0.00 0.00 42 1007.9
20260505214843 81 257 1.7 2.6 0.00 0.00 0.00 43 1007.5
20260505214340 81 285 0.9 1.7 0.00 0.00 0.00 42 1007.9
20260505213837 80 241 0.0 0.9 0.00 0.00 0.00 42 1007.7
20260505213335 81 264 0.0 0.0 0.00 0.00 0.00 42 1007.7
20260505212831 80 255 0.0 0.9 0.00 0.00 0.00 44 1008.1
20260505212328 79 231 0.9 1.7 0.00 0.00 0.00 44 1008.1
20260505211824 78 315 0.9 4.3 0.00 0.00 0.00 45 1008.1
20260505211322 78 340 1.7 1.7 0.00 0.00 0.00 45 1008.2
20260505210818 78 266 0.9 1.7 0.00 0.00 0.00 45 1008.3
20260505210315 78 259 1.7 1.7 0.00 0.00 0.00 45 1008.4
20260505205812 76 254 0.0 1.7 0.00 0.00 0.00 46 1008.4
20260505205310 76 256 1.7 2.6 0.00 0.00 0.00 48 1008.4
20260505204807 77 241 0.9 1.7 0.00 0.00 0.00 47 1008.5
20260505204305 76 235 1.7 1.7 0.00 0.00 0.00 47 1008.4
20260505203802 75 222 0.9 2.6 0.00 0.00 0.00 48 1008.6
20260505203259 75 262 0.9 1.7 0.00 0.00 0.00 48 1008.6
20260505202754 75 138 0.9 1.7 0.00 0.00 0.00 49 1008.9
20260505202251 75 256 0.9 1.7 0.00 0.00 0.00 49 1008.9
20260505201747 74 251 0.0 1.7 0.00 0.00 0.00 49 1009.1
20260505201245 74 217 0.9 1.7 0.00 0.00 0.00 50 1009.0
20260505200743 73 229 1.7 1.7 0.00 0.00 0.00 50 1009.3
20260505200240 73 267 0.0 1.7 0.00 0.00 0.00 51 1009.2
20260505195735 73 82 0.0 1.7 0.00 0.00 0.00 52 1009.3
20260505195233 73 230 0.9 1.7 0.00 0.00 0.00 52 1009.2
20260505194730 72 253 1.7 2.6 0.00 0.00 0.00 52 1009.4
20260505194227 72 253 0.9 1.7 0.00 0.00 0.00 53 1009.5
20260505193722 72 60 0.9 1.7 0.00 0.00 0.00 53 1009.6
20260505193220 71 272 0.0 1.7 0.00 0.00 0.00 53 1009.5
20260505192718 71 247 1.7 1.7 0.00 0.00 0.00 54 1009.6
20260505192216 71 296 0.9 1.7 0.00 0.00 0.00 54 1009.6
20260505191714 71 158 0.0 2.6 0.00 0.00 0.00 55 1009.8
20260505191212 71 246 0.9 1.7 0.00 0.00 0.00 55 1009.9
20260505190708 70 254 0.9 2.6 0.00 0.00 0.00 55 1009.9
20260505190207 70 241 1.7 5.2 0.00 0.00 0.00 56 1010.0
20260505185704 70 268 0.9 2.6 0.00 0.00 0.00 56 1009.9
20260505185201 70 254 0.0 0.9 0.00 0.00 0.00 57 1010.1
20260505184657 68 227 0.9 0.9 0.00 0.00 0.00 58 1010.1
20260505184154 68 99 4.3 4.3 0.00 0.00 0.00 58 1010.1
20260505183651 68 349 1.7 4.3 0.00 0.00 0.00 60 1010.2
20260505183149 67 93 1.7 2.6 0.00 0.00 0.00 60 1010.3
20260505182645 66 304 0.9 5.2 0.00 0.00 0.00 60 1010.6
20260505182142 66 77 0.0 1.7 0.00 0.00 0.00 62 1010.5
20260505181638 66 82 3.5 4.3 0.00 0.00 0.00 61 1010.3
20260505181136 66 279 2.6 4.3 0.00 0.00 0.00 62 1010.4
20260505180632 68 195 1.7 2.6 0.00 0.00 0.00 59 1010.6
20260505180129 68 218 1.7 2.6 0.00 0.00 0.00 59 1010.4
20260505175625 65 118 1.7 2.6 0.00 0.00 0.00 62 1010.7
20260505175122 67 109 3.5 5.2 0.00 0.00 0.00 61 1010.7
20260505174618 65 279 0.0 1.7 0.00 0.00 0.00 64 1010.9
20260505174114 64 81 1.7 2.6 0.00 0.00 0.00 63 1010.7
20260505173611 66 100 2.6 5.2 0.00 0.00 0.00 61 1010.6
20260505173108 63 178 0.9 2.6 0.00 0.00 0.00 65 1010.6
20260505172606 63 72 2.6 4.3 0.00 0.00 0.00 66 1010.8
20260505172103 62 141 2.6 2.6 0.00 0.00 0.00 67 1010.8
20260505171557 62 100 1.7 1.7 0.00 0.00 0.00 68 1011.1
20260505171054 62 242 0.0 0.9 0.00 0.00 0.00 69 1011.0
20260505170551 62 266 0.0 0.9 0.00 0.00 0.00 69 1010.8
20260505170047 61 223 1.7 1.7 0.00 0.00 0.00 69 1010.9
20260505165542 62 270 0.0 0.9 0.00 0.00 0.00 68 1010.9
20260505165039 61 268 0.9 0.9 0.00 0.00 0.00 70 1010.9
20260505164535 61 262 0.9 0.9 0.00 0.00 0.00 69 1010.9
20260505164032 61 267 0.0 0.9 0.00 0.00 0.00 69 1011.1
20260505163531 61 282 0.0 0.9 0.00 0.00 0.00 70 1011.0
20260505163027 60 269 0.0 0.9 0.00 0.00 0.00 72 1011.1
20260505162521 60 212 0.0 0.9 0.00 0.00 0.00 73 1011.1
20260505162018 60 323 0.0 0.9 0.00 0.00 0.00 73 1011.1
20260505161515 60 124 0.9 1.7 0.00 0.00 0.00 74 1011.1
20260505161012 59 289 0.9 0.9 0.00 0.00 0.00 74 1011.2
20260505160510 59 304 0.0 0.9 0.00 0.00 0.00 74 1011.1
20260505152940 59 270 0.0 0.9 0.00 0.00 0.00 76 1011.1
20260505152437 59 278 0.0 0.9 0.00 0.00 0.00 76 1011.0
20260505151937 59 289 0.0 0.9 0.00 0.00 0.00 78 1011.1
20260505151428 59 299 0.0 0.9 0.00 0.00 0.00 77 1011.2
20260505150925 59 284 0.0 0.0 0.00 0.00 0.00 77 1011.1
20260505150422 58 284 0.0 0.0 0.00 0.00 0.00 77 1011.0
20260505140352 58 280 0.0 0.0 0.00 0.00 0.00 79 1010.6
20260505124805 57 270 0.0 0.9 0.00 0.00 0.00 81 1010.0
20260505124303 57 270 0.0 0.0 0.00 0.00 0.00 81 1009.8
20260505123758 57 270 0.0 0.0 0.00 0.00 0.00 81 1009.9
20260505123255 57 270 0.0 0.0 0.00 0.00 0.00 80 1009.9
20260505122751 57 270 0.0 0.0 0.00 0.00 0.00 80 1009.7
20260505122249 57 270 0.0 0.0 0.00 0.00 0.00 80 1009.7
20260505121745 57 270 0.0 0.0 0.00 0.00 0.00 80 1009.6
20260505121242 57 270 0.0 0.0 0.00 0.00 0.00 80 1009.7
20260505120738 57 270 0.0 0.9 0.00 0.00 0.00 80 1009.6
20260505120235 57 270 0.0 0.9 0.00 0.00 0.00 80 1009.7
20260505115733 57 270 0.0 0.9 0.00 0.00 0.00 80 1009.5
20260505115231 57 270 0.0 0.9 0.00 0.00 0.00 80 1009.5
20260505114728 57 270 0.0 0.9 0.00 0.00 0.00 80 1009.5
20260505114224 57 270 0.0 0.9 0.00 0.00 0.00 80 1009.4
20260505113721 57 270 0.0 0.0 0.00 0.00 0.00 80 1009.5
20260505113217 57 270 0.0 0.0 0.00 0.00 0.00 80 1009.4
20260505112714 57 270 0.0 0.0 0.00 0.00 0.00 80 1009.4
20260505112212 57 270 0.0 0.0 0.00 0.00 0.00 80 1009.3
20260505111712 57 270 0.0 0.9 0.00 0.00 0.00 79 1009.5
20260505111208 57 270 0.0 0.0 0.00 0.00 0.00 80 1009.4
20260505110704 57 271 0.0 0.0 0.00 0.00 0.00 79 1009.2
20260505110201 57 270 0.0 0.0 0.00 0.00 0.00 79 1009.4
20260505102137 58 270 0.0 0.9 0.00 0.00 0.00 79 1009.2
20260505101636 58 270 0.0 0.0 0.00 0.00 0.00 78 1009.1
20260505101131 58 270 0.0 0.0 0.00 0.00 0.00 79 1009.2
20260505100627 58 269 0.0 0.0 0.00 0.00 0.00 79 1009.3
20260505100125 58 271 0.0 0.0 0.00 0.00 0.00 79 1009.2
20260505095621 58 271 0.0 0.9 0.00 0.00 0.00 79 1009.1
20260505095118 58 271 0.0 0.0 0.00 0.00 0.00 79 1009.2
20260505094614 58 271 0.0 0.0 0.00 0.00 0.00 79 1009.1
20260505094110 58 271 0.0 0.9 0.00 0.00 0.00 79 1009.2
20260505093607 58 269 0.0 0.9 0.00 0.00 0.00 79 1009.2
20260505093104 58 269 0.0 0.9 0.00 0.00 0.00 79 1009.3
20260505092601 58 269 0.9 0.9 0.00 0.00 0.00 79 1009.3
20260505092100 58 268 0.9 0.9 0.00 0.00 0.00 79 1009.3
20260505091556 58 278 0.0 0.9 0.00 0.00 0.00 79 1009.2
20260505091055 59 279 0.0 0.0 0.00 0.00 0.00 79 1009.3
20260505090552 59 277 0.0 0.0 0.00 0.00 0.00 78 1009.2
20260505090050 59 277 0.0 0.0 0.00 0.00 0.00 78 1009.3
20260505085547 59 278 0.0 0.0 0.00 0.00 0.00 78 1009.1
20260505085045 59 278 0.0 0.0 0.00 0.00 0.00 78 1009.1
20260505084543 59 279 0.0 0.0 0.00 0.00 0.00 78 1009.3
20260505084041 59 279 0.0 0.9 0.00 0.00 0.00 79 1009.3
20260505083538 59 278 0.0 0.9 0.00 0.00 0.00 78 1009.3
20260505083034 59 278 0.0 0.9 0.00 0.00 0.00 79 1009.6
20260505082530 59 277 0.9 0.9 0.00 0.00 0.00 78 1009.5
20260505082027 59 278 0.0 0.0 0.00 0.00 0.00 79 1009.4
20260505081524 59 278 0.0 0.0 0.00 0.00 0.00 79 1009.5
20260505081021 59 278 0.0 0.9 0.00 0.00 0.00 79 1009.2
20260505080517 59 279 0.9 0.9 0.00 0.00 0.00 78 1009.4
20260505080014 59 267 0.9 0.9 0.00 0.00 0.00 78 1009.8
20260505075510 59 266 0.9 0.9 0.00 0.00 0.00 78 1009.5
20260505075007 59 271 0.0 0.9 0.00 0.00 0.00 79 1009.5
20260505074504 59 271 0.9 0.9 0.00 0.00 0.00 79 1009.5
20260505074001 59 267 0.0 0.9 0.00 0.00 0.00 79 1009.4
20260505073458 59 272 0.9 1.7 0.00 0.00 0.00 79 1009.4
20260505072956 59 278 0.0 0.9 0.00 0.00 0.00 79 1009.6
20260505072452 59 278 0.0 0.9 0.00 0.00 0.00 79 1009.6
20260505071948 59 283 0.9 1.7 0.00 0.00 0.00 78 1009.4
20260505071444 59 278 0.9 0.9 0.00 0.00 0.00 78 1009.3
20260505070942 60 291 0.0 0.9 0.00 0.00 0.00 78 1009.3
20260505070439 59 292 0.9 0.9 0.00 0.00 0.00 78 1009.4
20260505065934 59 291 0.0 0.9 0.00 0.00 0.00 78 1009.4
20260505065431 59 292 0.0 0.0 0.00 0.00 0.00 79 1009.2
20260505064928 59 292 0.0 0.0 0.00 0.00 0.00 80 1009.4
20260505064425 59 292 0.0 0.0 0.00 0.00 0.00 79 1009.2
20260505063923 59 292 0.0 0.0 0.00 0.00 0.00 79 1009.4
20260505063419 59 292 0.0 0.0 0.00 0.00 0.00 79 1008.9
20260505062916 59 292 0.0 0.0 0.00 0.00 0.00 79 1009.2
20260505062413 59 292 0.0 0.9 0.00 0.00 0.00 79 1008.9
20260505061910 59 293 0.9 0.9 0.00 0.00 0.00 79 1009.0
20260505061408 60 295 0.0 0.9 0.00 0.00 0.00 78 1008.8
20260505060905 60 295 0.0 0.0 0.00 0.00 0.00 77 1009.0
20260505060402 60 296 0.0 0.0 0.00 0.00 0.00 77 1008.9
20260505055858 60 295 0.0 0.0 0.00 0.00 0.00 77 1009.0
20260505055354 60 295 0.0 0.0 0.00 0.00 0.00 77 1008.8
20260505054851 61 296 0.0 0.0 0.00 0.00 0.00 77 1009.0
20260505054349 61 296 0.0 0.9 0.00 0.00 0.00 75 1008.7
20260505053847 61 296 0.0 0.0 0.00 0.00 0.00 75 1008.6
20260505053344 61 294 0.0 0.9 0.00 0.00 0.00 75 1008.6
20260505052840 61 293 0.0 0.0 0.00 0.00 0.00 75 1008.5
20260505052337 62 288 0.9 0.9 0.00 0.00 0.00 75 1008.6
20260505051834 62 289 0.0 0.0 0.00 0.00 0.00 74 1008.5
20260505051332 62 290 0.0 0.0 0.00 0.00 0.00 74 1008.7
20260505050830 62 290 0.0 0.0 0.00 0.00 0.00 74 1008.5
20260505050328 62 261 0.0 0.9 0.00 0.00 0.00 73 1008.3